Other Public Products
Issued by NWS Grand Forks, ND

Home | Current Version | Previous Version | Text Only | Print | Product List | Glossary On
Versions: 1 2 3 4 5 6 7 8 9 10 11 12 13 14 15 16 17 18 19 20 21 22 23 24 25 26 27 28 29 30 31 32 33 34 35 36 37 38 39 40 41 42 43 44 45 46 47 48 49 50
000
FPUS83 KFGF 250731
OPUFGF
PRAIRIE TO PINES WEATHER ROUNDUP
NATIONAL WEATHER SERVICE EASTERN NORTH DAKOTA/GRAND FORKS ND
200 AM CDT SAT APR 25 2015

 **SATELLITE DATA USED TO AUGMENT SKY COVER AT AUTOMATED STATIONS**
 *****  WEATHER ACROSS EASTERN NORTH DAKOTA  *****

CITY           SKY/WX    TMP DP  RH WIND       PRES   REMARKS
GRAND FORKS    CLOUDY    45  34  65 E12       29.82F
GRAND FORKS AF CLOUDY    44  34  67 SE9       29.82S
GRAND CITY NWS   N/A     43 N/A N/A E14         N/A
BUXTON           N/A     44  37  77 CALM        N/A
DEVILS LAKE    CLOUDY    45  36  70 SE13G20   29.78S
FARGO          CLOUDY    45  36  70 E8        29.79S
WAHPETON ARPT  CLOUDY    43  39  87 E10       29.76F
$$

 *****  WEATHER ACROSS CENTRAL AND WESTERN NORTH DAKOTA  *****

CITY           SKY/WX    TMP DP  RH WIND       PRES   REMARKS
JAMESTOWN      CLOUDY    43  40  89 E9        29.75F
BISMARCK       MOCLDY    42  40  92 NE7       29.73R
MINOT          CLEAR     39  36  89 E6        29.74S
MINOT AFB      CLEAR     40  40  99 SE12      29.73S
GARRISON         N/A     44  40  85 E13       29.71R
WILLISTON      MOCLDY    50  37  61 E6        29.65S
DICKINSON      CLEAR     43  37  79 E9        29.65R
HETTINGER      CLEAR     42  36  79 E9        29.66R
$$

 *****  OTHER OBSERVATIONS NORTHEAST NORTH DAKOTA  *****

CITY           SKY/WX    TMP DP  RH WIND       PRES   REMARKS
WALHALLA       CLOUDY    36  36 100 N5        29.85S
LANGDON        FAIR      34  30  86 E9        29.82S
CAVALIER       CLOUDY    41  32  70 E6        29.84S
GRAFTON        CLOUDY    45  36  70 SE9       29.84S
CANDO          FAIR      37  32  81 E10       29.79F
FORT TOTTEN      N/A     44  39  83 SE9       29.95
ROLLA          FAIR      32  32 100 E3        29.81S
RUGBY          NOT AVBL
 ***** THE ABOVE OBSERVATIONS ARE NON NWS ARE NOT QUALITY
        CONTROLLED AND MAY MIS-REPORT RAIN FOR SNOW...
$$

 *****  OTHER OBSERVATIONS SOUTHEAST NORTH DAKOTA *****

CITY           SKY/WX    TMP DP  RH WIND       PRES   REMARKS
COOPERSTOWN    NOT AVBL
VALLEY CITY    CLOUDY    41  41 100 E9        29.76F FOG
OAKES            N/A     43  43 100 E12       29.73S FOG
GWINNER        CLOUDY    45  45 100 E16       29.75R
BUFFALO        NOT AVBL
WYNDMERE       NOT AVBL
 ***** THE ABOVE OBSERVATIONS ARE NON NWS ARE NOT QUALITY
       CONTROLLED AND MAY MIS-REPORT RAIN FOR SNOW...
$$

  *****  WEATHER ACROSS NORTHERN MINNESOTA  *****

CITY           SKY/WX    TMP DP  RH WIND       PRES   REMARKS
FLAG ISLAND    CLOUDY    39  28  65 CALM      29.90S
WARROAD        CLOUDY    37  30  75 E6        29.89S
ROSEAU         CLOUDY    41  32  70 E6        29.88S
HALLOCK        CLOUDY    43  34  70 E7        29.85S
THF RVR FALLS  CLOUDY    43  30  61 E10       29.85S
HALSTAD          N/A     43  34  69 E6          N/A
FOSSTON        CLOUDY    39  30  70 E5        29.84S
BAUDETTE       CLOUDY    39  24  55 E10       29.90R
WASKISH        CLOUDY    39  28  65 CALM      29.89S
CROOKSTON      CLOUDY    45  32  61 E8        29.84S
$$
  *****  WEATHER ACROSS CENTRAL AND WEST MINNESOTA  *****

CITY           SKY/WX    TMP DP  RH WIND       PRES   REMARKS
BEMIDJI        CLOUDY    39  30  69 E12       29.85S
PARK RAPIDS    CLOUDY    41  32  70 E9        29.82S
WADENA         CLOUDY    39  32  75 E9        29.80S
DETROIT LAKES  CLOUDY    41  34  75 E10G16    29.80F
MOORHEAD       CLOUDY    43  36  75 E7        29.80S
FERGUS FALLS   CLOUDY    43  37  81 SE13      29.78F
ELBOW LAKE     CLOUDY    42  41  98 E13       29.76S FOG
MORRIS MN      CLOUDY    43  43 100 E14       29.74S FOG
STAPLES        CLOUDY    39  32  75 E6        29.81S
WHEATON        CLOUDY    39  39 100 E13       29.76F FOG
$$
  *****  WEATHER ELSEWHERE ACROSS MINNESOTA  *****

CITY           SKY/WX    TMP DP  RH WIND       PRES   REMARKS
DULUTH         CLOUDY    36  24  62 E12       29.90S
INTRNTL FALLS  CLOUDY    38  21  50 E7        29.92S
ELY            CLOUDY    36  18  48 E6        29.95S
CLOQUET        CLOUDY    36  27  69 E9        29.89F
BRAINERD       CLOUDY    39  31  72 VRB6      29.84R
HIBBING        CLOUDY    37  19  48 E8        29.91R
ALEXANDRIA     LGT RAIN  41  40  96 SE13      29.78F FOG
SAINT CLOUD    CLOUDY    44  38  79 SE8       29.80S
MINNEAPOLIS    CLOUDY    44  39  82 E12       29.81S
$$

  *****  WEATHER ACROSS SOUTH DAKOTA  *****

CITY           SKY/WX    TMP DP  RH WIND       PRES   REMARKS
SIOUX FALLS    RAIN      48  46  93 E14       29.64F FOG
BROOKINGS      CLOUDY    48  46  93 SE17      29.64F
WATERTOWN      LGT RAIN  43  42  97 E15G25    29.65R FOG
HURON          CLOUDY    51  47  86 SE23G31   29.59R
SISSETON         N/A     44  42  93 SE15      29.72S
ABERDEEN       CLOUDY    46  43  89 NE14      29.68R
MITCHELL       CLOUDY    51  49  92 E22       29.58R
PIERRE         PTCLDY    48  43  82 NE16      29.59R
MOBRIDGE       CLOUDY    47  43  86 E15G22    29.64R
RAPID CITY     CLEAR     45  40  82 N10       29.63R
$$

  *****  SOME WEATHER IN NEARBY STATES *****

CITY           SKY/WX    TMP DP  RH WIND       PRES   REMARKS
GLASGOW MT     CLOUDY    53  33  46 NW10      29.59F
GREAT FALLS MT LGT RAIN  41  39  93 E7        29.74S
CHEYENNE WY    CLEAR     42  32  67 W9        29.71S
SCOTTSBLUFF NE PTCLDY    43  40  89 W6        29.64S
OMAHA NE       TSTM      57  54  89 E7        29.50F
DES MOINES IA  CLOUDY    50  43  77 E14       29.59F
DAVENPORT IA   MOCLDY    42  39  89 NE14G21   29.75R FOG
CHICAGO IL     CLOUDY    42  38  85 NE13      29.86F
EAU CLAIRE WI  CLOUDY    42  35  76 SE8G18    29.86F
LA CROSSE WI   CLOUDY    44  36  73 E9        29.84S
$$

  *****  SOME NATIONAL WEATHER *****

CITY           SKY/WX    TMP DP  RH WIND       PRES   REMARKS
LA GUARDIA NY  CLEAR     39  22  50 NW14      29.90F
RALEIGH NC     MOCLDY    47  39  74 CALM      29.93F
ATLANTA GA     CLOUDY    66  50  56 S3        29.90S
NEW ORLEANS LA CLOUDY    78  74  87 S17       29.77S
OKLAHOMA CITY  PTCLDY    61  57  87 S12       29.56F
ALBUQUERQUE NM PTCLDY    51  34  52 S6        29.97S
SALT LAKE CITY MOCLDY    47  43  86 N6        29.81F
LOS ANGELES CA MOCLDY    58  51  78 W9        30.00F
BOISE ID       CLOUDY    50  29  44 NW7       29.78R
SEATTLE WA     CLOUDY    46  40  79 S5        29.88S
$$

*** WEATHER ACROSS MANITOBA...SASKATCHEWAN AND ONTARIO ***
                ***ONTARIO***

CITY           SKY/WX    TMP DP  RH WIND       PRES   REMARKS
GERALDTON      CLEAR     19  18  93 CALM      30.07S
THUNDER BAY    MOCLDY    30  25  80 E3        30.05F
SIOUX LOOKOUT  MOCLDY    34  19  55 SE7       29.99S
TORONTO        CLEAR     28  21  74 NW8       30.00F WCI  20
BIG TROUT LK   CLEAR     12  10  92 E3        30.13R
PICKLE LAKE    NOT AVBL
DRYDEN         CLOUDY    37  27  65 NE6       29.96R
KENORA         CLOUDY    39  27  60 E9        29.93R
$$
                *** MANITOBA***

CITY           SKY/WX    TMP DP  RH WIND       PRES   REMARKS
BRANDON        PTCLDY    32  30  93 NE6       29.84R
DAUPHIN        CLOUDY    43  34  70 E9        29.83S
ISLAND LAKE    PTCLDY    28  14  54 E5        30.04R WCI  23
PILOT MOUND      N/A     34  30  86 E9          N/A
THE PAS        FLURRIES  25  23  93 NE6       29.95F WCI  18
THOMPSON       NOT AVBL
WINNIPEG       CLEAR     34  28  80 E7        29.90S
LYNN LAKE      CLEAR     18  10  73 N6        30.05S WCI   9
CHURCHILL      PTCLDY    12   7  79 S9        30.20S WCI   0
GILLAM         SNOW      21  18  86 E5        30.14S VSB 1/2 WCI  15
$$
                ***SASKATCHEWAN***

CITY           SKY/WX    TMP DP  RH WIND       PRES   REMARKS
ESTEVAN        MOCLDY    48  39  71 SE14G22   29.70R
KINDERSLEY     MOCLDY    34  32  93 NE20      29.73R WCI  22
LLOYDMINSTER   CLOUDY    32  27  80 E14G22    29.84S WCI  22
PRINCE ALBERT  CLOUDY    28  23  80 NE13G20   29.93S WCI  18
REGINA         CLOUDY    50  36  57 E12       29.70R
YORKTON        MOCLDY    43  36  75 E7        29.78S


USA.gov is the U.S. government's official web portal to all federal, state and local government web resources and services.